Location: The Saddle
(36.8333°N, 80.3417°W)
Time: 07:11:06
(UTC-05:00)

deb Explorer IX - All Passes

Search period start: 04 December 2023 00:00
Search period end: 14 December 2023 00:00
Orbit: 523 x 935 km, 38.8° (Epoch: 03 December)

Date Brightness Start Highest point End Pass type
(mag) Time Alt. Az. Time Alt. Az. Time Alt. Az.
04 Dec - 01:39:54 10° WNW 01:44:44 86° SSW 01:50:16 10° ESE night (unlit)
04 Dec - 03:24:48 10° W 03:29:29 34° SSW 03:34:41 10° SSE visible
04 Dec - 19:37:37 10° SSE 19:39:09 12° SE 19:40:41 10° ESE visible
04 Dec - 21:19:12 10° SW 21:23:09 53° SSE 21:27:27 10° E night (unlit)
04 Dec - 23:03:35 10° W 23:07:51 71° N 23:12:38 10° E night (unlit)
05 Dec - 00:48:14 10° WNW 00:52:51 82° NNE 00:58:06 10° E night (unlit)
05 Dec - 02:32:55 10° W 02:37:38 44° SSW 02:42:58 10° SE night (unlit)
05 Dec - 04:19:45 10° WSW 04:22:04 13° SW 04:24:28 10° SSW visible
05 Dec - 20:27:46 10° SW 20:31:28 37° SSE 20:35:22 10° E visible
05 Dec - 22:11:51 10° W 22:15:59 79° N 22:20:33 10° ENE night (unlit)
05 Dec - 23:56:31 10° WNW 00:00:55 73° N 00:05:53 10° E night (unlit)
06 Dec - 01:41:06 10° W 01:45:45 56° SSW 01:51:02 10° SE night (unlit)
06 Dec - 03:26:49 10° WSW 03:30:15 18° SW 03:33:55 10° S night (unlit)
06 Dec - 19:36:28 10° SSW 19:39:46 25° SSE 19:43:09 10° E visible
06 Dec - 21:20:04 10° WSW 21:24:06 87° SSE 21:28:28 10° ENE night (unlit)
06 Dec - 23:04:44 10° W 23:08:57 68° N 23:13:39 10° E night (unlit)
07 Dec - 00:49:17 10° WNW 00:53:48 71° SSW 00:58:56 10° ESE night (unlit)
07 Dec - 02:34:26 10° W 02:38:22 24° SSW 02:42:40 10° SSE night (unlit)
07 Dec - 18:45:25 10° S 18:48:02 17° SE 18:50:41 10° ESE visible
07 Dec - 20:28:17 10° WSW 20:32:14 68° SSE 20:36:23 10° ENE visible
07 Dec - 22:12:52 10° W 22:16:57 67° N 22:21:25 10° E night (unlit)
07 Dec - 23:57:28 10° WNW 00:01:50 87° SSW 00:06:44 10° ESE night (unlit)
08 Dec - 01:42:16 10° W 01:46:26 31° SSW 01:51:03 10° SSE night (unlit)
08 Dec - 17:55:10 10° SSE 17:56:17 11° SE 17:57:24 10° SE visible
08 Dec - 19:36:30 10° SW 19:40:21 49° SSE 19:44:17 10° E visible
08 Dec - 21:20:56 10° W 21:24:57 70° N 21:29:13 10° ENE night (unlit)
08 Dec - 23:05:36 10° WNW 23:09:48 79° NNE 23:14:27 10° E night (unlit)
09 Dec - 00:50:13 10° W 00:54:27 42° SSW 00:59:10 10° SE night (unlit)
09 Dec - 02:37:20 10° SW 02:38:46 11° SW 02:40:15 10° SSW night (unlit)
09 Dec - 18:44:47 10° SW 18:48:27 34° SSE 18:52:05 10° E visible
09 Dec - 20:28:56 10° W 20:32:54 80° NNW 20:37:03 10° ENE visible
09 Dec - 22:13:39 10° WNW 22:17:43 70° N 22:22:08 10° E night (unlit)
09 Dec - 23:58:13 10° W 00:02:25 55° SSW 00:07:05 10° SE night (unlit)
10 Dec - 01:43:57 10° WSW 01:46:47 16° SW 01:49:48 10° S night (unlit)
10 Dec - 17:53:11 10° SSW 17:56:31 24° SSE 17:59:46 10° E visible
10 Dec - 19:36:52 10° WSW 19:40:50 84° SSE 19:44:53 10° ENE visible
10 Dec - 21:21:37 10° W 21:25:36 65° N 21:29:48 10° E night (unlit)
10 Dec - 23:06:12 10° WNW 23:10:20 72° SSW 23:14:53 10° ESE night (unlit)
11 Dec - 00:51:20 10° W 00:54:45 22° SSW 00:58:28 10° SSE night (unlit)
11 Dec - 17:01:50 10° S 17:04:33 17° SSE 17:07:10 10° ESE daylight
11 Dec - 18:44:45 10° WSW 18:48:46 65° SSE 18:52:43 10° ENE visible
11 Dec - 20:29:29 10° W 20:33:25 66° N 20:37:30 10° E visible
11 Dec - 22:14:09 10° WNW 22:18:12 89° SSW 22:22:34 10° ESE night (unlit)
11 Dec - 23:58:57 10° W 00:02:40 30° SSW 00:06:43 10° SSE night (unlit)
12 Dec - 16:11:10 10° SSE 16:12:31 11° SE 16:13:50 10° SE daylight
12 Dec - 17:52:39 10° SW 17:56:40 47° SSE 18:00:30 10° E visible
12 Dec - 19:37:14 10° W 19:41:13 71° N 19:45:13 10° ENE visible
12 Dec - 21:22:01 10° WNW 21:26:00 77° N 21:30:11 10° E night (unlit)
12 Dec - 23:06:41 10° W 23:10:33 40° SSW 23:14:43 10° SE night (unlit)
13 Dec - 17:00:37 10° SW 17:04:32 34° SSE 17:08:12 10° E daylight
13 Dec - 18:44:53 10° W 18:48:59 82° NNW 18:52:58 10° ENE visible
13 Dec - 20:29:47 10° WNW 20:33:45 68° N 20:37:47 10° E visible
13 Dec - 22:14:26 10° W 22:18:21 55° SSW 22:22:32 10° SE night (unlit)
